Погода в Колумбии

США     39°13′14″N   76°51′34″W
В апреле 2022 года жителям России запретили посещать сайт meteo.paraplan.net по решению Генеральной прокуратуры. Аудитория сайта уменьшилась в 10 раз. Владельцы сайта не видят смысла в поддержке погодного сервера в таких условиях. Сайт будет закрыт в октябре.
темп.,
°C
ветер,
м/с
пор.,
м/с
влажн.,
%
обл.,
%
осадки,
мм/ч
давл.,
гПа
погр.,
м
4 октября, вт
вт423:00+9ссв51272100 0.5 1022861
02:00+9с51268100 0.7 1020857
05:00+9с61374100 0.2 1019758
08:00+9с51380100 0.4 1018734
11:00+8с51393100 2.8 1018670
14:00+9с61293100 3.9 1016675
17:00+9ссз61293100 1.6 1015652
20:00+10ссз51295100 3.8 1015522
5 октября, ср
ср523:00+10ссз51293100 1.5 1015609
02:00+10ссз51293100 2.1 1014549
05:00+11ссз51293100 0.3 1014513
08:00+11ссз41193100 0.5 1014499
11:00+12ссз41089100 0.1 1015524
14:00+14ссз4980100 0.1 1015563
17:00+16ссз496855 0.0 1016566
20:00+14ссз277016 0.0 1017236
6 октября, чт
чт623:00+13сз22722 0.0 101743
02:00+12сз22702 0.0 101729
05:00+11сз24687 0.0 101672
08:00+12зсз236754 0.0 101788
11:00+19зсз1246100 0.0 1017436
14:00+22з2339100 0.0 10161053
17:00+22з3347100 0.0 10151052
20:00+18зюз126051 0.0 101619
7 октября, пт
пт723:00+16з266231 0.0 1016125
02:00+15з23670 0.0 101667
05:00+14з25645 0.0 101596
08:00+14зюз26595 0.0 1015139
11:00+21зюз36425 0.0 1015519
14:00+23зсз57419 0.0 10141460
17:00+17сз6106193 0.0 1016796
20:00+12сз5126323 0.0 1020794
8 октября, сб
сб823:00+10ссз510600 0.0 1021906
02:00+9сз39595 0.0 1023848
05:00+8сз39563 0.0 1024775
08:00+7зсз36560 0.0 1025325
11:00+12сз47405 0.0 10261546
14:00+15сз46324 0.0 10231709
17:00+15зсз46340 0.0 10221784
20:00+12зсз24480 0.0 1022120